TimeHST,TemperatureF,Dew PointF,Humidity,Sea Level PressureIn,VisibilityMPH,Wind Direction,Wind SpeedMPH,Gust SpeedMPH,PrecipitationIn,Events,Conditions,WindDirDegrees,DateUTC
12:56 AM,42.3,15.8,34,29.96,12.0,ESE,5.8,-,N/A,,Clear,120,2014-02-27 10:56:00
1:56 AM,39.2,16.5,40,29.96,12.0,SSE,8.1,-,N/A,,Clear,160,2014-02-27 11:56:00
2:56 AM,41.5,19.4,41,29.94,12.0,ESE,6.9,-,N/A,,Clear,120,2014-02-27 12:56:00
3:56 AM,39.9,19.9,45,29.94,12.0,ESE,6.9,-,N/A,,Clear,120,2014-02-27 13:56:00
4:56 AM,42.3,33.1,70,29.94,12.0,ESE,6.9,-,N/A,,Clear,120,2014-02-27 14:56:00
5:56 AM,42.8,36.9,80,29.96,12.0,ESE,5.8,-,N/A,,Clear,120,2014-02-27 15:56:00
6:56 AM,39.9,21.0,47,30.02,12.0,ESE,4.6,-,N/A,,Clear,120,2014-02-27 16:56:00
7:56 AM,50.9,43.2,75,30.00,7.0,ESE,4.6,-,N/A,,Clear,110,2014-02-27 17:56:00
8:56 AM,56.5,46.6,69,29.99,12.0,South,6.9,-,N/A,,Clear,180,2014-02-27 18:56:00
9:56 AM,59.2,45.0,59,30.01,12.0,South,13.8,19.6,N/A,,Clear,170,2014-02-27 19:56:00
10:09 AM,60.8,44.6,55,30.29,12.0,SSW,11.5,18.4,N/A,,Clear,200,2014-02-27 20:09:00
10:56 AM,61.0,45.9,58,30.01,12.0,South,8.1,16.1,N/A,,Clear,190,2014-02-27 20:56:00
11:56 AM,63.9,41.9,45,29.99,12.0,South,8.1,16.1,N/A,,Partly Cloudy,190,2014-02-27 21:56:00
12:56 PM,63.9,48.2,57,29.96,12.0,WSW,8.1,19.6,N/A,,Partly Cloudy,250,2014-02-27 22:56:00
1:56 PM,63.9,47.5,55,29.94,12.0,West,10.4,16.1,N/A,,Clear,260,2014-02-27 23:56:00
2:56 PM,60.4,48.6,65,29.94,12.0,WSW,12.7,19.6,N/A,,Mostly Cloudy,250,2014-02-28 00:56:00
3:56 PM,60.3,48.6,65,29.95,12.0,West,9.2,15.0,N/A,,Mostly Cloudy,260,2014-02-28 01:56:00
4:16 PM,59.0,50.0,72,30.23,12.0,West,9.2,16.1,N/A,,Mostly Cloudy,260,2014-02-28 02:16:00
4:21 PM,59.0,48.2,67,30.23,11.0,West,8.1,-,N/A,,Mostly Cloudy,260,2014-02-28 02:21:00
4:56 PM,59.2,49.6,71,29.96,10.0,WSW,8.1,-,N/A,,Mostly Cloudy,250,2014-02-28 02:56:00
5:56 PM,56.1,49.8,79,29.98,10.0,WSW,4.6,-,N/A,,Clear,250,2014-02-28 03:56:00
6:56 PM,51.8,50.2,94,30.01,4.0,West,5.8,-,N/A,,Clear,260,2014-02-28 04:56:00
7:21 PM,51.8,50.0,94,30.26,3.0,West,2.3,-,N/A,,Mostly Cloudy,270,2014-02-28 05:21:00
7:26 PM,51.8,50.0,94,30.26,4.0,West,2.3,-,N/A,,Mostly Cloudy,270,2014-02-28 05:26:00
7:56 PM,51.6,49.8,94,29.99,4.0,WNW,1.2,-,N/A,,Scattered Clouds,300,2014-02-28 05:56:00
8:36 PM,51.8,48.2,88,30.29,7.0,North,1.2,-,N/A,,Mostly Cloudy,10,2014-02-28 06:36:00
8:46 PM,51.8,48.2,88,30.29,6.0,Calm,Calm,-,N/A,,Mostly Cloudy,0,2014-02-28 06:46:00
8:56 PM,52.3,48.0,85,29.99,6.0,NW,2.3,-,N/A,,Mostly Cloudy,310,2014-02-28 06:56:00
9:06 PM,51.8,48.2,88,30.29,6.0,NNE,2.3,-,N/A,,Mostly Cloudy,20,2014-02-28 07:06:00
9:11 PM,51.8,48.2,88,30.29,6.0,NNE,3.5,-,N/A,,Mostly Cloudy,20,2014-02-28 07:11:00
9:16 PM,51.8,46.4,82,30.29,6.0,North,5.8,-,N/A,,Scattered Clouds,360,2014-02-28 07:16:00
9:46 PM,50.0,44.6,82,30.30,7.0,North,1.2,-,N/A,,Mostly Cloudy,10,2014-02-28 07:46:00
9:51 PM,50.0,46.4,87,30.30,8.0,NW,2.3,-,N/A,,Mostly Cloudy,310,2014-02-28 07:51:00
9:56 PM,51.1,46.8,85,29.98,7.0,NW,2.3,-,N/A,,Mostly Cloudy,320,2014-02-28 07:56:00
10:11 PM,50.0,46.4,87,30.30,7.0,North,2.3,-,N/A,,Scattered Clouds,350,2014-02-28 08:11:00
10:56 PM,48.2,40.6,75,29.99,9.0,North,3.5,-,N/A,,Clear,10,2014-02-28 08:56:00
11:56 PM,47.7,43.2,84,29.97,6.0,North,5.8,-,N/A,,Clear,360,2014-02-28 09:56:00